Location: Goheenville
(40.9070°N, 79.3720°W)
Time: 07:40:24
(UTC-05:00)

Meteor 2-10 Rocket - Visible Passes

Search period start: 03 March 2015 00:00
Search period end: 13 March 2015 01:00
Orbit: 735 x 885 km, 81.2° (Epoch: 02 March)

Date Brightness Start Highest point End Pass type
(mag) Time Alt. Az. Time Alt. Az. Time Alt. Az.
03 Mar 6.7 03:37:23 10° E 03:37:58 10° E 03:38:56 10° ENE visible
03 Mar 3.5 05:14:02 10° S 05:19:15 86° W 05:24:44 10° N visible
04 Mar 3.9 04:49:55 10° S 04:55:05 68° E 05:00:32 10° NNE visible
05 Mar 4.5 04:25:59 10° SSE 04:30:58 47° E 04:36:14 10° NNE visible
05 Mar 4.8 06:09:24 10° WSW 06:13:26 21° WNW 06:17:27 10° NNW visible
06 Mar 5.1 04:02:48 13° SSE 04:06:53 34° E 04:11:48 10° NNE visible
06 Mar 4.4 05:44:25 10° SW 05:49:02 29° WNW 05:53:45 10° NNW visible
07 Mar 5.6 03:39:57 15° SE 03:42:50 24° E 03:47:14 10° NE visible
07 Mar 4.0 05:21:10 18° SW 05:24:41 40° WNW 05:29:52 10° N visible
08 Mar 6.0 04:16:52 14° ESE 04:18:49 17° E 04:22:25 10° NE visible
08 Mar 3.6 05:58:04 32° SW 06:00:24 56° WNW 06:05:52 10° N visible
09 Mar 6.3 03:53:36 11° E 03:54:50 12° E 03:57:02 10° ENE visible
09 Mar 3.5 05:34:47 51° SSW 05:36:10 79° W 05:41:47 10° N visible
10 Mar 3.7 05:11:25 67° SSE 05:12:00 75° E 05:17:36 10° NNE visible
10 Mar 5.3 06:52:36 12° W 06:54:56 14° WNW 06:57:44 10° NNW visible
11 Mar 4.2 04:47:56 53° E 04:47:56 53° E 04:53:20 10° NNE visible
11 Mar 4.9 06:29:08 19° W 06:30:27 20° WNW 06:34:23 10° NNW visible
12 Mar 4.9 04:24:24 37° ENE 04:24:24 37° ENE 04:28:57 10° NNE visible
12 Mar 4.6 06:05:34 27° WNW 06:06:01 27° WNW 06:10:43 10° NNW visible
